Location: Omaha
(41.2590°N, 95.9380°W)
Time: 19:24:52
(UTC-05:00)

Tiangong 2 - Pass Details

Date: 07 October 2017
Orbit: 388 x 391 km, 42.8° (Epoch: 23 October)

Event Time Altitude Azimuth Distance (km) Brightness Sun altitude
Exits shadow 05:45:15 - 170° (S) 1,502 4.0 -19.9°
Reaches altitude 10° 05:45:49 10° 161° (SSE) 1,415 4.0 -19.8°
Maximum altitude 05:46:47 11° 143° (SE) 1,354 4.1 -19.6°
Drops below altitude 10° 05:47:46 10° 125° (SE) 1,418 4.5 -19.4°
Sets 05:51:06 0° 88° (E) 2,279 6.6 -18.8°
